C/2023 P1 ( Nishimura )

Japanese version
Home page
Updated on February 10, 2024

---------------------------------------------------------------------

* Profile

Discovery Date August 12, 2023
Magnitude 10.4 mag
Discoverer Hideo Nishimura (Kakegawa, Japan)

* Pictures

* Orbital Elements

Epoch 2023 Sept. 13.0 TT = JDT 2460200.5
T 2023 Sept. 17.64171 TT                                Rudenko
q   0.2251447            (2000.0)            P               Q
z  +0.0174970      Peri.  116.30054     +0.38226853     -0.62775099
 +/-0.0000047      Node    66.83426     -0.85525365     -0.51820400
e   0.9960607      Incl.  132.47657     +0.34987420     -0.58085568
>From 705 observations 2023 Jan. 19-Dec. 1, mean residual 0".7.

* Finding Charts

* Magnitudes Graph

        m1 = 9.0 + 5 log d + 17.0 log r  [   ,-35]  (             - 2023 Aug. 13)
        m1 = 9.0 + 5 log d + 10.0 log r  [-35,   ]  (2023 Aug. 13 -             )

---------------------------------------------------------------------

The orbital elements are published on M.P.E.C. 2023-X256.
The charts are made with StellaNavigator Ver.11 (AstroArts).
The magnitudes graphs are made with Comet for Windows.

---------------------------------------------------------------------

Copyright(C) Seiichi Yoshida (comet@aerith.net). All rights reserved.